Date,TemperatureHighF,TemperatureAvgF,TemperatureLowF,DewpointHighF,DewpointAvgF,DewpointLowF,HumidityHigh,HumidityAvg,HumidityLow,PressureMaxIn,PressureMinIn,WindSpeedMaxMPH,WindSpeedAvgMPH,GustSpeedMaxMPH,PrecipitationSumIn
2013-2-1,29.1,21.0,9.3,16.0,7.7,0.0,68,52,42,29.98,29.37,21,4,21,0.00
2013-2-2,24.2,15.1,5.4,16.0,5.4,0.0,83,61,39,30.17,29.97,16,2,16,0.00
2013-2-3,28.5,20.8,16.4,23.0,17.9,16.0,96,86,70,30.06,29.65,18,3,20,0.03
2013-2-4,25.8,17.9,10.1,16.0,8.5,-6.0,88,63,38,29.79,29.54,26,5,26,0.00
2013-2-5,21.0,11.2,3.1,0.0,-4.8,-6.0,62,45,31,30.02,29.79,18,2,18,0.00
2013-2-6,33.9,19.1,7.9,26.0,9.7,-6.0,91,63,41,30.22,29.91,18,3,18,0.01
2013-2-7,12.3,5.6,0.5,0.0,-9.4,-13.0,58,45,29,30.59,30.21,20,4,20,0.00
2013-2-8,17.2,7.9,0.0,14.0,3.1,-13.0,92,74,52,30.59,29.90,24,3,24,0.00
2013-2-9,14.0,10.7,7.2,11.0,9.9,8.0,93,92,88,30.01,29.63,35,8,38,0.00
2013-2-10,30.4,20.0,9.9,11.0,7.4,4.0,91,57,37,30.34,30.01,20,5,21,0.00
2013-2-11,38.7,28.0,18.1,39.0,21.1,0.0,100,75,40,30.32,29.57,20,3,20,0.19
2013-2-12,39.0,34.9,32.0,36.0,32.6,29.0,100,91,78,29.73,29.49,12,2,12,0.05
2013-2-13,41.4,34.0,29.4,29.0,25.5,23.0,86,71,52,29.79,29.70,14,2,14,0.00
2013-2-14,37.5,31.1,25.9,24.0,19.5,16.0,82,62,43,30.01,29.72,35,3,35,0.00
2013-2-15,41.8,34.6,24.5,37.0,29.9,16.0,100,82,60,30.02,29.94,34,5,34,0.00
2013-2-16,35.9,30.3,23.6,36.0,30.1,24.0,100,98,88,29.95,29.75,29,5,29,0.00
2013-2-17,23.5,19.1,16.2,24.0,18.5,11.0,98,93,75,29.75,29.00,34,10,35,0.03
2013-2-18,26.4,18.8,12.1,11.0,5.8,4.0,75,54,42,29.89,29.23,39,8,39,0.00
2013-2-19,45.3,29.1,15.4,39.0,14.6,4.0,100,55,22,30.07,29.73,18,4,18,0.05
2013-2-20,41.8,35.1,26.4,42.0,30.1,18.0,100,81,62,29.73,29.39,26,5,29,0.78
2013-2-21,32.2,25.8,20.2,29.0,19.7,11.0,93,76,63,30.08,29.57,23,5,24,0.00
2013-2-22,37.6,29.0,22.0,26.0,21.1,18.0,87,71,47,30.36,30.08,18,2,18,0.00
2013-2-23,30.2,26.3,20.6,26.0,23.5,18.0,96,89,81,30.35,30.07,13,3,13,0.00
2013-2-24,29.1,26.5,23.9,29.0,26.6,23.0,100,98,93,30.08,29.80,18,2,18,0.01
2013-2-25,38.4,27.6,18.4,23.0,13.7,0.0,96,59,28,30.23,29.87,14,2,16,0.13
2013-2-26,43.2,33.8,28.1,26.0,21.3,4.0,84,60,30,30.37,30.23,13,2,13,0.01
2013-2-27,39.3,31.3,26.2,31.0,26.6,23.0,100,82,59,30.29,29.77,26,5,26,0.01
2013-2-28,37.3,33.5,29.6,37.0,33.8,31.0,100,100,100,29.77,29.53,23,6,24,0.28